FW0050 Weather Reports


time (UTC)temp
F
wind
direction
speed
knots
gust
knots
rain 1hr
in
rain 24hr
in
rain mn
in
humidity
%
barometer
mb
20211025034420 63 126 2.6 7.8 0.00 0.01 0.01 87 1009.1
20211025032444 63 158 1.7 5.2 0.00 0.01 0.01 88 1009.4
20211025030942 63 153 3.5 7.8 0.00 0.01 0.01 87 1009.3
20211025025431 63 82 1.7 6.1 0.00 0.01 0.01 88 1009.3
20211025023923 64 152 2.6 7.8 0.00 0.01 0.01 87 1009.3
20211025021924 64 132 5.2 9.6 0.00 0.01 0.01 87 1009.3
20211025015938 64 26 0.0 9.6 0.00 0.01 0.01 87 1009.3
20211025014426 63 136 1.7 5.2 0.00 0.01 0.01 88 1009.3
20211025012441 64 131 2.6 6.1 0.00 0.01 0.01 88 1009.2
20211025010932 64 128 3.5 7.8 0.00 0.01 0.01 87 1009.2
20211025004946 64 130 0.9 4.3 0.00 0.01 0.01 86 1009.2
20211025002939 65 125 3.5 12.2 0.00 0.01 0.01 85 1009.1
20211025000920 65 164 0.9 4.3 0.00 0.01 0.01 85 1009.2
20211024234936 65 127 1.7 4.3 0.00 0.01 0.01 86 1009.1
20211024233426 65 65 1.7 3.5 0.00 0.01 0.01 85 1009.0
20211024230929 66 148 0.9 2.6 0.00 0.01 0.01 84 1009.2
20211024224426 67 142 0.9 3.5 0.00 0.01 0.01 80 1009.3
20211024222431 68 95 0.0 4.3 0.00 0.01 0.01 78 1009.0
20211024220438 68 161 2.6 4.3 0.00 0.01 0.01 76 1009.2
20211024214436 69 115 0.9 4.3 0.00 0.01 0.01 74 1009.3
20211024211942 70 76 2.6 7.0 0.00 0.01 0.01 73 1009.1
20211024205945 71 161 2.6 5.2 0.00 0.01 0.01 69 1009.6
20211024203932 71 110 4.3 7.0 0.00 0.01 0.01 66 1009.3
20211024202425 71 117 3.5 7.8 0.00 0.01 0.01 67 1009.4
20211024200505 71 122 3.5 6.1 0.00 0.01 0.01 67 1009.5
20211024194428 71 134 3.5 6.1 0.00 0.01 0.01 65 1009.7
20211024192912 72 150 2.6 4.3 0.00 0.01 0.01 64 1009.8
20211024190940 72 142 2.6 5.2 0.00 0.01 0.01 63 1009.9
20211024184916 72 141 0.9 3.5 0.00 0.01 0.01 66 1010.3
20211024182933 71 154 1.7 7.0 0.00 0.01 0.01 67 1010.6
20211024180951 71 162 2.6 6.1 0.00 0.01 0.01 68 1010.7
20211024174940 69 216 1.7 7.0 0.00 0.01 0.01 68 1010.9
20211024172939 69 149 4.3 7.0 0.00 0.01 0.01 66 1011.1
20211024171442 69 127 3.5 5.2 0.00 0.01 0.01 66 1011.3
20211024165441 70 123 4.3 7.0 0.00 0.01 0.01 67 1011.4
20211024163425 69 146 3.5 5.2 0.00 0.01 0.01 71 1011.8
20211024161919 68 131 1.7 5.2 0.00 0.01 0.01 73 1011.8
20211024155936 67 147 2.6 5.2 0.00 0.01 0.01 75 1011.8
20211024154424 66 150 0.0 6.1 0.00 0.01 0.01 78 1011.8
20211024152437 64 141 0.9 6.1 0.01 0.01 0.01 80 1012.0
20211024150925 62 96 3.5 6.1 0.01 0.01 0.01 83 1012.0
20211024144948 60 147 2.6 7.0 0.01 0.01 0.01 87 1012.2
20211024142940 58 127 3.5 6.1 0.00 0.00 0.00 90 1012.0
20211024141425 56 134 1.7 5.2 0.00 0.00 0.00 92 1012.3
20211024135741 54 64 1.7 4.3 0.00 0.00 0.00 95 1012.2
20211024132437 53 27 1.7 4.3 0.00 0.00 0.00 95 1012.0
20211024130929 53 91 0.0 0.0 0.00 0.00 0.00 95 1012.1
20211024124925 52 67 0.0 0.0 0.00 0.00 0.00 96 1011.7
20211024123419 51 25 1.7 2.6 0.00 0.00 0.00 96 1011.4
20211024121917 51 18 0.0 2.6 0.00 0.00 0.00 96 1011.2
20211024115937 51 25 0.9 2.6 0.00 0.00 0.00 95 1011.1
20211024113928 51 39 2.6 4.3 0.00 0.01 0.00 95 1011.2
20211024112424 52 5 0.0 0.0 0.00 0.01 0.00 95 1011.3
20211024110918 52 29 0.9 2.6 0.00 0.01 0.00 95 1011.4
20211024104942 52 52 0.9 2.6 0.00 0.01 0.00 95 1011.3
20211024102923 52 45 0.0 1.7 0.00 0.01 0.00 95 1011.1
20211024100937 52 35 0.9 2.6 0.00 0.01 0.00 95 1010.9
20211024094945 53 24 1.7 2.6 0.00 0.01 0.00 94 1010.7
20211024092932 53 355 0.0 0.9 0.00 0.01 0.00 94 1010.6
20211024090914 54 32 0.0 1.7 0.00 0.01 0.00 94 1010.5
20211024084936 54 8 1.7 3.5 0.00 0.01 0.00 94 1010.5
20211024082941 54 90 0.0 0.0 0.00 0.01 0.00 95 1010.6
20211024080953 54 1 0.0 1.7 0.00 0.01 0.00 95 1010.7
20211024075431 54 16 0.9 3.5 0.00 0.01 0.00 95 1010.6
20211024073918 54 346 1.7 3.5 0.00 0.01 0.00 95 1010.6
20211024071934 54 58 0.0 0.0 0.00 0.01 0.00 95 1010.6
20211024070422 54 50 0.0 0.0 0.00 0.01 0.00 94 1010.6
20211024064428 54 60 0.9 3.5 0.00 0.01 0.00 94 1010.5
20211024062439 55 63 0.0 1.7 0.00 0.01 0.00 93 1010.5
20211024060917 55 61 2.6 4.3 0.00 0.01 0.00 93 1010.4
20211024054940 55 111 0.0 2.6 0.00 0.01 0.00 92 1010.3
20211024053439 55 229 1.7 4.3 0.00 0.01 0.00 93 1010.1
20211024051933 54 72 0.0 0.0 0.00 0.01 0.00 95 1010.3
20211024050422 54 32 0.0 0.0 0.00 0.01 0.00 95 1010.4
20211024044921 54 119 0.0 0.0 0.00 0.01 0.01 96 1010.4
20211024042926 54 104 0.0 0.0 0.00 0.01 0.01 96 1010.4
20211024040937 53 327 0.0 0.0 0.00 0.01 0.01 95 1010.4